SWA1131 KSAN-KSLC

Flight info

Callsign SWA1131
Flight time 1h 29m
Altitude 38000
Route ZZOOO4 MTBAL CADEZ HAKMN Q73 LAKRR MLF QWENN6
Aircraft B738/M-SDE2E3FGHIRWXY/LB1

Departure

Time 2026-04-26 05:29
Airport San Diego International Airport (KSAN)

Arrival

Time 2026-04-26 06:58
Airport Salt Lake City International Airport (KSLC)
Time Latitude Longitude Altitude Speed Heading
2026-04-26 04:54 32.73314 -117.19570 22 ft 0 kts 227°
2026-04-26 05:10 32.73331 -117.19549 25 ft 4 kts 226°
2026-04-26 05:10 32.73350 -117.19526 23 ft 4 kts 225°
2026-04-26 05:10 32.73368 -117.19505 24 ft 4 kts 218°
2026-04-26 05:10 32.73389 -117.19495 24 ft 4 kts 166°
2026-04-26 05:11 32.73407 -117.19503 23 ft 4 kts 147°
2026-04-26 05:12 32.73403 -117.19500 25 ft 2 kts 147°
2026-04-26 05:13 32.73390 -117.19490 23 ft 2 kts 145°
2026-04-26 05:13 32.73376 -117.19470 22 ft 4 kts 123°
2026-04-26 05:13 32.73365 -117.19437 22 ft 4 kts 105°
2026-04-26 05:13 32.73357 -117.19402 24 ft 4 kts 105°
2026-04-26 05:14 32.73347 -117.19360 22 ft 7 kts 105°
2026-04-26 05:14 32.73326 -117.19274 23 ft 13 kts 106°
2026-04-26 05:14 32.73302 -117.19175 24 ft 12 kts 106°
2026-04-26 05:14 32.73279 -117.19078 22 ft 12 kts 106°
2026-04-26 05:15 32.73256 -117.18983 22 ft 12 kts 106°
2026-04-26 05:15 32.73234 -117.18891 22 ft 11 kts 105°
2026-04-26 05:15 32.73212 -117.18801 24 ft 11 kts 105°
2026-04-26 05:15 32.73191 -117.18715 23 ft 11 kts 107°
2026-04-26 05:16 32.73166 -117.18610 25 ft 15 kts 106°
2026-04-26 05:16 32.73137 -117.18489 24 ft 15 kts 106°
2026-04-26 05:16 32.73109 -117.18373 25 ft 14 kts 106°
2026-04-26 05:16 32.73082 -117.18262 24 ft 14 kts 106°
2026-04-26 05:17 32.73056 -117.18156 23 ft 13 kts 106°
2026-04-26 05:17 32.73032 -117.18054 23 ft 13 kts 106°
2026-04-26 05:17 32.73007 -117.17955 23 ft 12 kts 107°
2026-04-26 05:17 32.72983 -117.17858 23 ft 12 kts 108°
2026-04-26 05:18 32.72962 -117.17781 24 ft 7 kts 108°
2026-04-26 05:18 32.72957 -117.17761 23 ft 0 kts 109°
2026-04-26 05:20 32.72955 -117.17755 23 ft 3 kts 109°
2026-04-26 05:21 32.72949 -117.17704 24 ft 8 kts 84°
2026-04-26 05:21 32.72953 -117.17681 24 ft 0 kts 73°
2026-04-26 05:25 32.72954 -117.17678 24 ft 1 kts 73°
2026-04-26 05:25 32.72954 -117.17677 24 ft 0 kts 73°
2026-04-26 05:27 32.72958 -117.17661 26 ft 7 kts 73°
2026-04-26 05:27 32.72981 -117.17598 25 ft 9 kts 48°
2026-04-26 05:27 32.73029 -117.17611 24 ft 7 kts 292°
2026-04-26 05:27 32.73029 -117.17614 24 ft 0 kts 286°
2026-04-26 05:28 32.73031 -117.17623 24 ft 1 kts 285°
2026-04-26 05:28 32.73037 -117.17647 24 ft 11 kts 285°
2026-04-26 05:28 32.73139 -117.18068 22 ft 95 kts 286°
2026-04-26 05:28 32.73390 -117.19105 48 ft 162 kts 288°
2026-04-26 05:29 32.73696 -117.20401 962 ft 160 kts 284°
2026-04-26 05:29 32.73980 -117.21665 2085 ft 156 kts 282°
2026-04-26 05:29 32.74278 -117.22966 2693 ft 180 kts 284°
2026-04-26 05:29 32.74655 -117.24496 3123 ft 202 kts 285°
2026-04-26 05:30 32.75101 -117.26149 3566 ft 221 kts 286°
2026-04-26 05:30 32.75577 -117.27921 4259 ft 224 kts 285°
2026-04-26 05:30 32.76040 -117.29723 4945 ft 234 kts 285°
2026-04-26 05:30 32.76496 -117.31582 5757 ft 233 kts 283°
2026-04-26 05:31 32.76539 -117.33471 6528 ft 234 kts 253°
2026-04-26 05:31 32.75683 -117.35133 7079 ft 243 kts 225°
2026-04-26 05:31 32.74297 -117.36237 7922 ft 241 kts 209°
2026-04-26 05:31 32.72626 -117.36686 8466 ft 257 kts 181°
2026-04-26 05:32 32.70877 -117.36079 9098 ft 271 kts 153°
2026-04-26 05:32 32.69485 -117.34531 9788 ft 279 kts 130°
2026-04-26 05:32 32.68378 -117.32666 10428 ft 280 kts 129°
2026-04-26 05:32 32.67265 -117.30762 11021 ft 284 kts 129°
2026-04-26 05:33 32.66113 -117.28838 11506 ft 290 kts 131°
2026-04-26 05:33 32.64874 -117.26912 12008 ft 294 kts 134°
2026-04-26 05:33 32.63602 -117.25017 12658 ft 297 kts 128°
2026-04-26 05:33 32.62891 -117.22670 13162 ft 312 kts 100°
2026-04-26 05:34 32.62679 -117.20092 13694 ft 317 kts 98°
2026-04-26 05:34 32.62476 -117.17470 14174 ft 321 kts 98°
2026-04-26 05:34 32.62252 -117.14829 14688 ft 323 kts 99°
2026-04-26 05:34 32.62016 -117.12165 15180 ft 327 kts 99°
2026-04-26 05:35 32.62150 -117.09446 15598 ft 336 kts 74°
2026-04-26 05:35 32.62967 -117.06840 16115 ft 338 kts 67°
2026-04-26 05:35 32.63858 -117.04244 16570 ft 342 kts 67°
2026-04-26 05:35 32.64748 -117.01608 17034 ft 346 kts 68°
2026-04-26 05:36 32.65617 -116.98976 17498 ft 349 kts 68°
2026-04-26 05:36 32.66478 -116.96267 17968 ft 353 kts 73°
2026-04-26 05:36 32.66798 -116.93383 18387 ft 353 kts 92°
2026-04-26 05:36 32.66817 -116.90458 18775 ft 356 kts 92°
2026-04-26 05:37 32.66845 -116.87499 19141 ft 361 kts 92°
2026-04-26 05:37 32.66900 -116.84515 19497 ft 364 kts 92°
2026-04-26 05:37 32.66966 -116.81492 19845 ft 369 kts 92°
2026-04-26 05:37 32.67285 -116.78449 20181 ft 378 kts 72°
2026-04-26 05:38 32.68524 -116.75711 20541 ft 378 kts 46°
2026-04-26 05:38 32.70471 -116.73677 20878 ft 370 kts 22°
2026-04-26 05:38 32.72778 -116.72408 21244 ft 365 kts 14°
2026-04-26 05:38 32.75136 -116.71276 21613 ft 368 kts 13°
2026-04-26 05:39 32.77485 -116.70174 22008 ft 369 kts 13°
2026-04-26 05:39 32.79874 -116.69044 22382 ft 372 kts 13°
2026-04-26 05:39 32.82290 -116.67889 22720 ft 376 kts 13°
2026-04-26 05:39 32.84726 -116.66711 23060 ft 379 kts 13°
2026-04-26 05:40 32.87177 -116.65516 23406 ft 383 kts 13°
2026-04-26 05:40 32.89647 -116.64305 23723 ft 385 kts 13°
2026-04-26 05:40 32.92130 -116.63083 24027 ft 388 kts 13°
2026-04-26 05:40 32.94629 -116.61854 24331 ft 390 kts 13°
2026-04-26 05:41 32.97140 -116.60616 24623 ft 391 kts 13°
2026-04-26 05:41 32.99629 -116.59389 24893 ft 393 kts 13°
2026-04-26 05:41 33.02162 -116.58135 25178 ft 395 kts 13°
2026-04-26 05:41 33.04691 -116.56833 25430 ft 398 kts 14°
2026-04-26 05:42 33.07234 -116.55485 25634 ft 400 kts 16°
2026-04-26 05:42 33.09773 -116.54102 25859 ft 403 kts 15°
2026-04-26 05:42 33.12351 -116.52751 26087 ft 405 kts 15°
2026-04-26 05:42 33.14938 -116.51414 26357 ft 406 kts 14°
2026-04-26 05:43 33.17532 -116.50067 26605 ft 407 kts 15°
2026-04-26 05:43 33.20135 -116.48712 26853 ft 409 kts 14°
2026-04-26 05:43 33.22748 -116.47344 27084 ft 411 kts 15°
2026-04-26 05:43 33.25341 -116.45990 27290 ft 412 kts 14°
2026-04-26 05:44 33.27975 -116.44616 27529 ft 414 kts 14°
2026-04-26 05:44 33.30598 -116.43235 27875 ft 412 kts 16°
2026-04-26 05:44 33.33224 -116.41842 28080 ft 414 kts 16°
2026-04-26 05:44 33.35870 -116.40446 28247 ft 416 kts 16°
2026-04-26 05:45 33.38517 -116.39016 28445 ft 422 kts 21°
2026-04-26 05:45 33.40884 -116.36842 28561 ft 438 kts 45°
2026-04-26 05:45 33.42765 -116.33965 28832 ft 439 kts 52°
2026-04-26 05:45 33.44527 -116.30969 29044 ft 441 kts 54°
2026-04-26 05:46 33.46248 -116.27966 29205 ft 444 kts 54°
2026-04-26 05:46 33.48004 -116.24920 29375 ft 446 kts 54°
2026-04-26 05:46 33.51618 -116.18775 29547 ft 454 kts 53°
2026-04-26 05:47 33.53458 -116.15689 29775 ft 454 kts 53°
2026-04-26 05:47 33.55300 -116.12603 29941 ft 456 kts 53°
2026-04-26 05:47 33.57144 -116.09511 30078 ft 457 kts 53°
2026-04-26 05:47 33.58997 -116.06399 30223 ft 459 kts 53°
2026-04-26 05:48 33.60899 -116.03334 30366 ft 458 kts 46°
2026-04-26 05:48 33.63099 -116.00569 30576 ft 456 kts 40°
2026-04-26 05:48 33.65404 -115.97965 30783 ft 454 kts 38°
2026-04-26 05:48 33.67735 -115.95414 30957 ft 454 kts 38°
2026-04-26 05:49 33.74711 -115.87655 31254 ft 461 kts 40°
2026-04-26 05:49 33.77035 -115.84999 31374 ft 462 kts 40°
2026-04-26 05:50 33.79357 -115.82325 31503 ft 463 kts 40°
2026-04-26 05:50 33.81677 -115.79646 31645 ft 463 kts 40°
2026-04-26 05:50 33.84005 -115.76956 31764 ft 465 kts 40°
2026-04-26 05:50 33.86340 -115.74254 31908 ft 466 kts 40°
2026-04-26 05:51 33.88681 -115.71545 32068 ft 467 kts 40°
2026-04-26 05:51 33.91022 -115.68834 32225 ft 468 kts 40°
2026-04-26 05:51 33.93374 -115.66110 32364 ft 469 kts 40°
2026-04-26 05:51 33.95698 -115.63418 32550 ft 470 kts 41°
2026-04-26 05:52 33.98056 -115.60684 32673 ft 472 kts 41°
2026-04-26 05:52 34.00424 -115.57934 32781 ft 474 kts 41°
2026-04-26 05:52 34.02795 -115.55173 32911 ft 475 kts 41°
2026-04-26 05:52 34.05179 -115.52400 33050 ft 476 kts 41°
2026-04-26 05:53 34.07565 -115.49627 33159 ft 477 kts 41°
2026-04-26 05:53 34.09958 -115.46842 33261 ft 479 kts 41°
2026-04-26 05:53 34.12362 -115.44041 33288 ft 482 kts 41°
2026-04-26 05:54 34.17220 -115.38399 33371 ft 487 kts 38°
2026-04-26 05:54 34.21879 -115.34732 33377 ft 478 kts 17°
2026-04-26 05:54 34.25997 -115.33076 33452 ft 465 kts
2026-04-26 05:55 34.29177 -115.32434 33489 ft 463 kts
2026-04-26 05:55 34.35573 -115.31257 33552 ft 467 kts
2026-04-26 05:56 34.40902 -115.30245 33777 ft 465 kts
2026-04-26 05:56 34.44082 -115.29623 34003 ft 461 kts
2026-04-26 05:56 34.48294 -115.28785 34295 ft 456 kts
2026-04-26 05:56 34.50360 -115.28371 34476 ft 454 kts
2026-04-26 05:57 34.54464 -115.27546 34774 ft 449 kts
2026-04-26 05:57 34.57531 -115.26929 35003 ft 445 kts
2026-04-26 05:57 34.60570 -115.26317 35215 ft 441 kts
2026-04-26 05:57 34.62613 -115.25906 35379 ft 439 kts
2026-04-26 05:58 34.65625 -115.25302 35498 ft 437 kts
2026-04-26 05:58 34.68564 -115.24710 35831 ft 432 kts
2026-04-26 05:58 34.71547 -115.24113 35939 ft 438 kts
2026-04-26 05:58 34.74558 -115.23512 36273 ft 437 kts
2026-04-26 05:59 34.77545 -115.22909 36658 ft 434 kts
2026-04-26 05:59 34.80518 -115.22308 37036 ft 431 kts
2026-04-26 05:59 34.83467 -115.21711 37416 ft 428 kts
2026-04-26 05:59 34.86394 -115.21118 37751 ft 426 kts
2026-04-26 06:00 34.89322 -115.20527 37971 ft 428 kts
2026-04-26 06:00 34.92295 -115.19933 37793 ft 439 kts
2026-04-26 06:00 34.95344 -115.19324 37770 ft 446 kts
2026-04-26 06:00 34.98371 -115.18713 37945 ft 449 kts
2026-04-26 06:01 35.01462 -115.18085 38130 ft 451 kts
2026-04-26 06:01 35.04569 -115.17452 38291 ft 454 kts
2026-04-26 06:01 35.07687 -115.16815 38439 ft 456 kts
2026-04-26 06:01 35.10823 -115.16175 38569 ft 458 kts
2026-04-26 06:02 35.13969 -115.15534 38706 ft 459 kts
2026-04-26 06:02 35.20315 -115.14244 38796 ft 466 kts
2026-04-26 06:03 35.26774 -115.12928 38792 ft 475 kts
2026-04-26 06:03 35.33314 -115.11590 38790 ft 484 kts
2026-04-26 06:04 35.40016 -115.10217 38791 ft 492 kts
2026-04-26 06:04 35.46802 -115.08724 38778 ft 502 kts 10°
2026-04-26 06:04 35.50090 -115.07164 38784 ft 513 kts 24°
2026-04-26 06:05 35.53102 -115.04798 38781 ft 515 kts 37°
2026-04-26 06:05 35.57978 -114.98454 38739 ft 508 kts 49°
2026-04-26 06:06 35.62554 -114.91913 38761 ft 507 kts 47°
2026-04-26 06:06 35.67255 -114.85452 38767 ft 508 kts 47°
2026-04-26 06:07 35.71984 -114.78998 38756 ft 508 kts 47°
2026-04-26 06:07 35.74346 -114.75765 38730 ft 508 kts 47°
2026-04-26 06:08 35.78907 -114.69508 38734 ft 509 kts 47°
2026-04-26 06:08 35.82974 -114.63915 38693 ft 510 kts 47°
2026-04-26 06:09 35.87708 -114.57395 38717 ft 511 kts 47°
2026-04-26 06:09 35.92447 -114.50854 38700 ft 511 kts 47°
2026-04-26 06:10 35.97184 -114.44303 38690 ft 512 kts 47°
2026-04-26 06:10 36.01925 -114.37735 38677 ft 513 kts 47°
2026-04-26 06:11 36.03127 -114.36067 38671 ft 513 kts 47°
2026-04-26 06:11 36.07758 -114.30148 38674 ft 510 kts 36°
2026-04-26 06:12 36.13674 -114.25575 38685 ft 503 kts 19°
2026-04-26 06:12 36.20098 -114.22161 38689 ft 502 kts 18°
2026-04-26 06:13 36.26533 -114.18778 38673 ft 503 kts 19°
2026-04-26 06:13 36.32960 -114.15318 38670 ft 503 kts 19°
2026-04-26 06:14 36.39332 -114.11843 38694 ft 504 kts 20°
2026-04-26 06:14 36.45748 -114.08329 38687 ft 504 kts 20°
2026-04-26 06:15 36.52167 -114.04811 38676 ft 504 kts 19°
2026-04-26 06:15 36.58582 -114.01290 38680 ft 504 kts 19°
2026-04-26 06:16 36.64997 -113.97768 38703 ft 503 kts 19°
2026-04-26 06:16 36.71396 -113.94241 38698 ft 503 kts 20°
2026-04-26 06:17 36.77784 -113.90725 38688 ft 502 kts 20°
2026-04-26 06:17 36.84120 -113.87222 38690 ft 501 kts 19°
2026-04-26 06:18 36.90484 -113.83697 38701 ft 500 kts 20°
2026-04-26 06:18 36.96814 -113.80137 38714 ft 498 kts 20°
2026-04-26 06:19 37.03150 -113.76638 38728 ft 498 kts 20°
2026-04-26 06:19 37.09487 -113.73128 38719 ft 497 kts 20°
2026-04-26 06:20 37.15767 -113.69632 38739 ft 497 kts 20°
2026-04-26 06:20 37.22084 -113.66099 38717 ft 498 kts 20°
2026-04-26 06:21 37.28394 -113.62531 38701 ft 497 kts 20°
2026-04-26 06:21 37.34728 -113.59006 38719 ft 498 kts 20°
2026-04-26 06:22 37.41016 -113.55485 38719 ft 498 kts 20°
2026-04-26 06:22 37.47344 -113.51923 38712 ft 498 kts 20°
2026-04-26 06:23 37.53671 -113.48351 38713 ft 498 kts 20°
2026-04-26 06:23 37.59992 -113.44777 38709 ft 498 kts 20°
2026-04-26 06:24 37.66305 -113.41204 38753 ft 497 kts 20°
2026-04-26 06:24 37.72568 -113.37656 38766 ft 496 kts 20°
2026-04-26 06:25 37.78862 -113.34080 38772 ft 496 kts 20°
2026-04-26 06:25 37.85151 -113.30499 38764 ft 495 kts 20°
2026-04-26 06:26 37.91424 -113.26922 38764 ft 495 kts 21°
2026-04-26 06:26 37.97657 -113.23360 38716 ft 495 kts 21°
2026-04-26 06:27 38.03929 -113.19769 38715 ft 494 kts 21°
2026-04-26 06:27 38.10203 -113.16172 38715 ft 495 kts 20°
2026-04-26 06:28 38.16466 -113.12572 38746 ft 494 kts 21°
2026-04-26 06:28 38.22701 -113.08983 38528 ft 499 kts 20°
2026-04-26 06:28 38.25868 -113.07158 38000 ft 500 kts 21°
2026-04-26 06:29 38.29026 -113.05334 37452 ft 498 kts 21°
2026-04-26 06:29 38.32175 -113.03513 36938 ft 496 kts 21°
2026-04-26 06:29 38.35300 -113.01706 36585 ft 490 kts 21°
2026-04-26 06:29 38.38397 -112.99949 36184 ft 486 kts 20°
2026-04-26 06:30 38.41495 -112.98284 35806 ft 481 kts 19°
2026-04-26 06:30 38.44575 -112.96671 35433 ft 477 kts 19°
2026-04-26 06:30 38.47636 -112.95075 35041 ft 474 kts 19°
2026-04-26 06:30 38.50674 -112.93483 34655 ft 471 kts 20°
2026-04-26 06:31 38.53693 -112.91889 34261 ft 468 kts 20°
2026-04-26 06:31 38.56645 -112.90320 33871 ft 465 kts 20°
2026-04-26 06:31 38.59627 -112.88730 33407 ft 463 kts 20°
2026-04-26 06:31 38.62585 -112.87148 32995 ft 459 kts 20°
2026-04-26 06:32 38.65518 -112.85578 32582 ft 455 kts 21°
2026-04-26 06:32 38.68426 -112.84019 32180 ft 452 kts 21°
2026-04-26 06:32 38.71315 -112.82470 31796 ft 448 kts 21°
2026-04-26 06:32 38.74177 -112.80936 31416 ft 445 kts 21°
2026-04-26 06:33 38.77017 -112.79411 31047 ft 441 kts 21°
2026-04-26 06:33 38.79839 -112.77895 30673 ft 438 kts 20°
2026-04-26 06:33 38.82579 -112.76425 30316 ft 435 kts 20°
2026-04-26 06:33 38.85378 -112.74916 30011 ft 431 kts 20°
2026-04-26 06:34 38.88118 -112.73436 29758 ft 425 kts 20°
2026-04-26 06:34 38.90837 -112.71967 29342 ft 423 kts 20°
2026-04-26 06:34 38.93537 -112.70508 28988 ft 419 kts 20°
2026-04-26 06:34 38.96210 -112.69062 28587 ft 416 kts 20°
2026-04-26 06:35 38.98867 -112.67624 28231 ft 412 kts 20°
2026-04-26 06:35 39.01500 -112.66197 27842 ft 409 kts 20°
2026-04-26 06:35 39.04082 -112.64797 27474 ft 407 kts 20°
2026-04-26 06:35 39.06681 -112.63387 27108 ft 404 kts 20°
2026-04-26 06:36 39.09262 -112.61985 26749 ft 402 kts 21°
2026-04-26 06:36 39.11830 -112.60590 26372 ft 400 kts 21°
2026-04-26 06:36 39.14385 -112.59199 26016 ft 398 kts 21°
2026-04-26 06:36 39.16929 -112.57815 25665 ft 396 kts 21°
2026-04-26 06:37 39.19460 -112.56436 25297 ft 394 kts 21°
2026-04-26 06:37 39.21980 -112.55061 24937 ft 393 kts 21°
2026-04-26 06:37 39.24488 -112.53693 24578 ft 391 kts 21°
2026-04-26 06:37 39.26977 -112.52333 24212 ft 390 kts 21°
2026-04-26 06:38 39.29486 -112.50963 23849 ft 389 kts 21°
2026-04-26 06:38 39.31942 -112.49602 23495 ft 388 kts 22°
2026-04-26 06:38 39.34404 -112.48197 23165 ft 386 kts 22°
2026-04-26 06:38 39.36856 -112.46784 22749 ft 385 kts 22°
2026-04-26 06:39 39.39298 -112.45374 22362 ft 383 kts 22°
2026-04-26 06:39 39.41722 -112.43976 21999 ft 380 kts 22°
2026-04-26 06:39 39.44130 -112.42589 21645 ft 378 kts 22°
2026-04-26 06:39 39.46526 -112.41210 21292 ft 376 kts 22°
2026-04-26 06:40 39.48910 -112.39837 20939 ft 373 kts 22°
2026-04-26 06:40 39.51245 -112.38493 20594 ft 372 kts 23°
2026-04-26 06:40 39.53603 -112.37134 20254 ft 370 kts 23°
2026-04-26 06:40 39.55944 -112.35784 19904 ft 368 kts 23°
2026-04-26 06:41 39.58274 -112.34440 19574 ft 366 kts 23°
2026-04-26 06:41 39.60597 -112.33099 19234 ft 364 kts 23°
2026-04-26 06:41 39.62908 -112.31764 18898 ft 363 kts 23°
2026-04-26 06:41 39.65208 -112.30435 18569 ft 361 kts 23°
2026-04-26 06:42 39.67496 -112.29112 18251 ft 359 kts 24°
2026-04-26 06:42 39.69748 -112.27809 17868 ft 359 kts 24°
2026-04-26 06:42 39.72025 -112.26491 17496 ft 357 kts 24°
2026-04-26 06:42 39.74292 -112.25176 17139 ft 355 kts 24°
2026-04-26 06:43 39.76541 -112.23871 16828 ft 352 kts 24°
2026-04-26 06:43 39.78748 -112.22590 16661 ft 344 kts 24°
2026-04-26 06:43 39.80927 -112.21324 16368 ft 341 kts 24°
2026-04-26 06:43 39.83087 -112.20068 16041 ft 339 kts 23°
2026-04-26 06:44 39.85237 -112.18817 15724 ft 338 kts 23°
2026-04-26 06:44 39.87376 -112.17571 15403 ft 336 kts 23°
2026-04-26 06:44 39.89501 -112.16333 15085 ft 334 kts 23°
2026-04-26 06:44 39.91589 -112.15116 14777 ft 333 kts 23°
2026-04-26 06:45 39.93704 -112.13883 14466 ft 332 kts 23°
2026-04-26 06:45 39.95805 -112.12655 14136 ft 331 kts 23°
2026-04-26 06:45 39.97911 -112.11478 13901 ft 326 kts 19°
2026-04-26 06:45 40.00042 -112.10558 13729 ft 319 kts 15°
2026-04-26 06:46 40.02149 -112.09749 13584 ft 313 kts 14°
2026-04-26 06:46 40.04234 -112.08965 13428 ft 311 kts 15°
2026-04-26 06:46 40.06308 -112.08177 13276 ft 311 kts 16°
2026-04-26 06:46 40.08371 -112.07380 13148 ft 315 kts 16°
2026-04-26 06:47 40.10225 -112.06655 13021 ft 318 kts 16°
2026-04-26 06:47 40.12337 -112.05822 12864 ft 317 kts 16°
2026-04-26 06:47 40.14442 -112.04987 12710 ft 315 kts 16°
2026-04-26 06:47 40.16536 -112.04152 12562 ft 313 kts 17°
2026-04-26 06:48 40.18614 -112.03323 12404 ft 312 kts 17°
2026-04-26 06:48 40.20688 -112.02493 12271 ft 311 kts 17°
2026-04-26 06:48 40.22749 -112.01668 12124 ft 308 kts 17°
2026-04-26 06:48 40.24793 -112.00848 11970 ft 306 kts 17°
2026-04-26 06:49 40.26773 -112.00054 11845 ft 299 kts 17°
2026-04-26 06:49 40.28746 -111.99262 11738 ft 294 kts 17°
2026-04-26 06:49 40.30693 -111.98480 11593 ft 292 kts 17°
2026-04-26 06:49 40.32634 -111.97700 11440 ft 291 kts 17°
2026-04-26 06:50 40.34545 -111.96932 11276 ft 285 kts 17°
2026-04-26 06:50 40.36425 -111.96175 11142 ft 279 kts 17°
2026-04-26 06:50 40.38254 -111.95440 11020 ft 270 kts 17°
2026-04-26 06:50 40.40072 -111.95118 10741 ft 262 kts 354°
2026-04-26 06:51 40.41850 -111.95393 10488 ft 254 kts 353°
2026-04-26 06:51 40.45285 -111.95789 9937 ft 242 kts 354°
2026-04-26 06:51 40.46935 -111.95977 9647 ft 235 kts 354°
2026-04-26 06:52 40.48576 -111.96167 9335 ft 241 kts 354°
2026-04-26 06:52 40.50295 -111.96368 9093 ft 254 kts 354°
2026-04-26 06:52 40.52074 -111.96576 8789 ft 258 kts 354°
2026-04-26 06:52 40.53870 -111.96786 8507 ft 259 kts 355°
2026-04-26 06:53 40.55626 -111.96991 8415 ft 248 kts 354°
2026-04-26 06:53 40.57323 -111.97189 8161 ft 244 kts 354°
2026-04-26 06:53 40.59014 -111.97387 7847 ft 243 kts 354°
2026-04-26 06:53 40.60646 -111.97577 7527 ft 233 kts 354°
2026-04-26 06:54 40.62212 -111.97760 7239 ft 219 kts 355°
2026-04-26 06:54 40.63689 -111.97933 6979 ft 209 kts 355°
2026-04-26 06:54 40.65105 -111.98099 6733 ft 202 kts 355°
2026-04-26 06:54 40.66465 -111.98258 6455 ft 188 kts 355°
2026-04-26 06:55 40.67716 -111.98404 6218 ft 172 kts 355°
2026-04-26 06:55 40.68893 -111.98541 5989 ft 168 kts 355°
2026-04-26 06:55 40.70058 -111.98678 5771 ft 170 kts 355°
2026-04-26 06:55 40.71232 -111.98815 5549 ft 174 kts 355°
2026-04-26 06:56 40.72430 -111.98957 5298 ft 172 kts 355°
2026-04-26 06:56 40.73610 -111.99097 5051 ft 168 kts 355°
2026-04-26 06:56 40.74755 -111.99222 4828 ft 163 kts 355°
2026-04-26 06:56 40.75877 -111.99359 4607 ft 161 kts 355°
2026-04-26 06:57 40.76983 -111.99486 4403 ft 158 kts 355°
2026-04-26 06:57 40.78056 -111.99612 4260 ft 147 kts 355°
2026-04-26 06:57 40.78980 -111.99721 4233 ft 114 kts 354°
2026-04-26 06:57 40.79646 -111.99800 4228 ft 77 kts 355°
2026-04-26 06:58 40.79890 -111.99827 4230 ft 23 kts 356°
2026-04-26 06:58 40.79958 -111.99824 4230 ft 23 kts
2026-04-26 06:59 40.80085 -111.99790 4232 ft 22 kts 21°
2026-04-26 06:59 40.80183 -111.99684 4230 ft 17 kts 59°
2026-04-26 06:59 40.80166 -111.99549 4230 ft 17 kts 157°
2026-04-26 06:59 40.80054 -111.99530 4230 ft 16 kts 173°
2026-04-26 07:00 40.79946 -111.99519 4230 ft 15 kts 177°
2026-04-26 07:00 40.79843 -111.99509 4230 ft 15 kts 174°
2026-04-26 07:00 40.79809 -111.99505 4230 ft 14 kts 174°
2026-04-26 07:01 40.79720 -111.99493 4230 ft 14 kts 174°
2026-04-26 07:01 40.79626 -111.99482 4230 ft 13 kts 175°
2026-04-26 07:01 40.79537 -111.99472 4230 ft 13 kts 175°
2026-04-26 07:02 40.79529 -111.99471 4230 ft 13 kts 175°
2026-04-26 07:02 40.79469 -111.99464 4230 ft 12 kts 174°
2026-04-26 07:02 40.79467 -111.99464 4230 ft 12 kts 174°
2026-04-26 07:02 40.79427 -111.99459 4230 ft 12 kts 174°
2026-04-26 07:03 40.79343 -111.99448 4230 ft 12 kts 174°
2026-04-26 07:03 40.79261 -111.99438 4230 ft 12 kts 176°
2026-04-26 07:03 40.79177 -111.99431 4230 ft 12 kts 175°
2026-04-26 07:03 40.79093 -111.99422 4230 ft 12 kts 175°
2026-04-26 07:04 40.79012 -111.99413 4230 ft 12 kts 173°
2026-04-26 07:04 40.78932 -111.99399 4230 ft 11 kts 172°
2026-04-26 07:04 40.78855 -111.99391 4230 ft 11 kts 177°
2026-04-26 07:04 40.78774 -111.99382 4230 ft 13 kts 174°
2026-04-26 07:05 40.78684 -111.99371 4230 ft 13 kts 174°
2026-04-26 07:05 40.78594 -111.99362 4230 ft 13 kts 176°
2026-04-26 07:05 40.78508 -111.99353 4230 ft 12 kts 174°
2026-04-26 07:05 40.78428 -111.99338 4230 ft 12 kts 154°
2026-04-26 07:06 40.78409 -111.99247 4230 ft 10 kts 87°
2026-04-26 07:06 40.78409 -111.99243 4230 ft 10 kts 87°
2026-04-26 07:07 40.78414 -111.99162 4230 ft 9 kts 85°
2026-04-26 07:07 40.78418 -111.99098 4230 ft 7 kts 85°
2026-04-26 07:07 40.78428 -111.99043 4229 ft 4 kts 41°
2026-04-26 07:07 40.78455 -111.99045 4230 ft 4 kts 353°
2026-04-26 07:08 40.78472 -111.99047 4230 ft 1 kts 356°
2026-04-26 07:08 40.78480 -111.99048 4230 ft 0 kts 355°